Hourly Weather Bolshie Golubochki

Today, 18 June, Friday

Time Temperature Precipitation Wind Pressure Humidity
00:00 +14°C° 0 mm 3 mps 755 mmHg 86%
01:00 +13°C° 0 mm 3 mps 755 mmHg 85%
02:00 +13°C° 0 mm 3 mps 755 mmHg 83%
03:00 +13°C° 0 mm 3 mps 755 mmHg 84%
04:00 +13°C° 0 mm 3 mps 755 mmHg 84%
05:00 +14°C° 0 mm 3 mps 755 mmHg 85%
06:00 +16°C° 0 mm 3 mps 756 mmHg 80%
07:00 +18°C° 0 mm 4 mps 756 mmHg 76%
08:00 +20°C° 0 mm 4 mps 756 mmHg 71%
09:00 +21°C° 0 mm 4 mps 756 mmHg 68%
10:00 +22°C° 0 mm 4 mps 756 mmHg 66%
11:00 +23°C° 0 mm 5 mps 756 mmHg 63%
12:00 +23°C° 0 mm 5 mps 756 mmHg 62%
13:00 +23°C° 0 mm 4 mps 756 mmHg 62%
14:00 +23°C° 0 mm 4 mps 756 mmHg 61%
15:00 +23°C° 0 mm 4 mps 756 mmHg 65%
16:00 +23°C° 0 mm 4 mps 756 mmHg 69%
17:00 +22°C° 0 mm 3 mps 756 mmHg 72%
18:00 +21°C° 0 mm 3 mps 756 mmHg 78%
19:00 +19°C° 0 mm 3 mps 756 mmHg 83%
20:00 +17°C° 0 mm 3 mps 756 mmHg 88%
21:00 +17°C° 0 mm 3 mps 756 mmHg 89%
22:00 +16°C° 0 mm 3 mps 756 mmHg 89%
23:00 +15°C° 0 mm 2 mps 756 mmHg 90%

Tomorrow, 19 June, Saturday

Time Temperature Precipitation Wind Pressure Humidity
00:00 +15°C° 0 mm 2 mps 756 mmHg 91%
01:00 +14°C° 0 mm 2 mps 756 mmHg 91%
02:00 +14°C° 0 mm 2 mps 756 mmHg 92%
03:00 +15°C° 0 mm 2 mps 756 mmHg 91%
04:00 +15°C° 0 mm 2 mps 756 mmHg 91%
05:00 +16°C° 0 mm 2 mps 756 mmHg 90%
06:00 +17°C° 0 mm 2 mps 756 mmHg 85%
07:00 +19°C° 0 mm 3 mps 756 mmHg 80%
08:00 +20°C° 0 mm 3 mps 756 mmHg 75%
09:00 +21°C° 0 mm 3 mps 756 mmHg 72%
10:00 +22°C° 0 mm 3 mps 756 mmHg 70%
11:00 +24°C° 0 mm 3 mps 756 mmHg 68%
12:00 +25°C° 0 mm 3 mps 756 mmHg 67%
13:00 +25°C° 0 mm 3 mps 755 mmHg 65%
14:00 +26°C° 0 mm 3 mps 755 mmHg 64%
15:00 +26°C° 0 mm 3 mps 755 mmHg 68%
16:00 +26°C° 0 mm 2 mps 755 mmHg 71%
17:00 +25°C° 0 mm 2 mps 754 mmHg 74%
18:00 +24°C° 0 mm 2 mps 754 mmHg 79%
19:00 +21°C° 0 mm 2 mps 754 mmHg 83%
20:00 +19°C° 0 mm 2 mps 754 mmHg 88%
21:00 +18°C° 0 mm 2 mps 754 mmHg 88%
22:00 +17°C° 0 mm 2 mps 754 mmHg 89%
23:00 +17°C° 0 mm 2 mps 754 mmHg 89%

Day after tomorrow, 20 June, Sunday

Time Temperature Precipitation Wind Pressure Humidity
00:00 +16°C° 0 mm 2 mps 754 mmHg 89%
01:00 +16°C° 0 mm 2 mps 754 mmHg 89%
02:00 +15°C° 0 mm 2 mps 754 mmHg 89%
03:00 +15°C° 0 mm 2 mps 754 mmHg 88%
04:00 +16°C° 0 mm 2 mps 754 mmHg 88%
05:00 +16°C° 0 mm 2 mps 754 mmHg 88%
06:00 +18°C° 0 mm 2 mps 754 mmHg 83%
07:00 +20°C° 0 mm 2 mps 754 mmHg 79%
08:00 +21°C° 0 mm 3 mps 754 mmHg 74%
09:00 +22°C° 0 mm 3 mps 754 mmHg 71%
10:00 +24°C° 0 mm 3 mps 754 mmHg 67%
11:00 +25°C° 0 mm 3 mps 754 mmHg 64%
12:00 +26°C° 0 mm 3 mps 754 mmHg 62%
13:00 +26°C° 0 mm 3 mps 753 mmHg 61%
14:00 +27°C° 0 mm 3 mps 753 mmHg 60%
15:00 +26°C° 0 mm 3 mps 753 mmHg 64%
16:00 +26°C° 0 mm 3 mps 753 mmHg 69%
17:00 +26°C° 0 mm 2 mps 752 mmHg 73%
18:00 +24°C° 0 mm 2 mps 752 mmHg 77%
19:00 +23°C° 0 mm 2 mps 752 mmHg 82%
20:00 +20°C° 0 mm 2 mps 752 mmHg 86%
21:00 +20°C° 0 mm 2 mps 752 mmHg 86%
22:00 +19°C° 0 mm 2 mps 752 mmHg 86%
23:00 +18°C° 0 mm 2 mps 752 mmHg 87%

21 June, Monday

Time Temperature Precipitation Wind Pressure Humidity
00:00 +18°C° 0 mm 2 mps 752 mmHg 88%
01:00 +18°C° 0 mm 3 mps 752 mmHg 89%
02:00 +17°C° 0 mm 3 mps 752 mmHg 91%
03:00 +18°C° 0 mm 3 mps 752 mmHg 90%
04:00 +18°C° 0 mm 2 mps 752 mmHg 90%
05:00 +19°C° 0 mm 2 mps 752 mmHg 89%
06:00 +20°C° 0 mm 3 mps 752 mmHg 85%
07:00 +21°C° 0 mm 4 mps 752 mmHg 82%
08:00 +23°C° 0 mm 4 mps 751 mmHg 78%
09:00 +25°C° 0 mm 4 mps 751 mmHg 75%
10:00 +26°C° 0 mm 4 mps 751 mmHg 72%
11:00 +27°C° 0 mm 4 mps 751 mmHg 69%
12:00 +27°C° 0 mm 4 mps 751 mmHg 69%
13:00 +28°C° 0 mm 4 mps 751 mmHg 69%
14:00 +28°C° 0 mm 4 mps 751 mmHg 69%
15:00 +28°C° 0 mm 4 mps 751 mmHg 71%
16:00 +28°C° 0 mm 4 mps 751 mmHg 74%
17:00 +28°C° 0 mm 4 mps 751 mmHg 76%
18:00 +26°C° 0 mm 4 mps 751 mmHg 81%
19:00 +25°C° 0 mm 3 mps 751 mmHg 86%
20:00 +22°C° 0 mm 3 mps 751 mmHg 91%
21:00 +22°C° 0 mm 3 mps 751 mmHg 91%
22:00 +21°C° 0 mm 3 mps 751 mmHg 91%
23:00 +20°C° 0 mm 3 mps 751 mmHg 92%

22 June, Tuesday

Time Temperature Precipitation Wind Pressure Humidity
00:00 +20°C° 0 mm 3 mps 751 mmHg 91%
01:00 +20°C° 0 mm 3 mps 751 mmHg 91%
02:00 +20°C° 0 mm 3 mps 751 mmHg 91%
03:00 +20°C° 0 mm 3 mps 751 mmHg 90%
04:00 +20°C° 0 mm 3 mps 751 mmHg 90%
05:00 +20°C° 0 mm 2 mps 751 mmHg 90%
06:00 +22°C° 0 mm 3 mps 751 mmHg 85%
07:00 +23°C° 0 mm 4 mps 751 mmHg 79%
08:00 +26°C° 0 mm 4 mps 751 mmHg 74%
09:00 +27°C° 0 mm 4 mps 751 mmHg 70%
10:00 +28°C° 0 mm 4 mps 751 mmHg 67%
11:00 +29°C° 0 mm 4 mps 751 mmHg 63%
12:00 +30°C° 0 mm 4 mps 751 mmHg 62%
13:00 +30°C° 0 mm 4 mps 751 mmHg 61%
14:00 +30°C° 0 mm 4 mps 751 mmHg 60%
15:00 +30°C° 0 mm 4 mps 751 mmHg 64%
16:00 +29°C° 0 mm 3 mps 751 mmHg 69%
17:00 +29°C° 0 mm 3 mps 751 mmHg 73%
18:00 +27°C° 0 mm 3 mps 751 mmHg 78%
19:00 +26°C° 0 mm 3 mps 751 mmHg 82%
20:00 +24°C° 0 mm 3 mps 751 mmHg 87%
21:00 +22°C° 0 mm 3 mps 751 mmHg 87%
22:00 +22°C° 0 mm 3 mps 751 mmHg 88%
23:00 +21°C° 0 mm 3 mps 751 mmHg 89%

23 June, Wednesday

Time Temperature Precipitation Wind Pressure Humidity
00:00 +21°C° 0 mm 3 mps 751 mmHg 90%
01:00 +20°C° 0 mm 3 mps 751 mmHg 90%
02:00 +20°C° 0 mm 2 mps 751 mmHg 91%
03:00 +21°C° 0 mm 2 mps 751 mmHg 90%
04:00 +21°C° 0 mm 2 mps 751 mmHg 90%
05:00 +21°C° 0 mm 2 mps 751 mmHg 89%
06:00 +24°C° 0 mm 3 mps 752 mmHg 84%
07:00 +25°C° 0 mm 3 mps 752 mmHg 80%
08:00 +27°C° 0 mm 4 mps 752 mmHg 75%
09:00 +28°C° 0 mm 4 mps 752 mmHg 72%
10:00 +29°C° 0 mm 4 mps 751 mmHg 68%
11:00 +30°C° 0 mm 4 mps 751 mmHg 65%
12:00 +30°C° 0 mm 4 mps 751 mmHg 63%
13:00 +32°C° 0 mm 4 mps 751 mmHg 62%
14:00 +32°C° 0 mm 4 mps 751 mmHg 61%
15:00 +31°C° 0 mm 3 mps 751 mmHg 64%
16:00 +30°C° 0 mm 3 mps 751 mmHg 67%
17:00 +30°C° 0 mm 3 mps 751 mmHg 71%
18:00 +29°C° 0 mm 3 mps 751 mmHg 76%
19:00 +27°C° 0 mm 3 mps 751 mmHg 81%
20:00 +25°C° 0 mm 2 mps 751 mmHg 86%
21:00 +25°C° 0 mm 2 mps 751 mmHg 86%
22:00 +24°C° 0 mm 2 mps 751 mmHg 86%
23:00 +23°C° 0 mm 2 mps 751 mmHg 87%
Show more